Weather in Dolsk

Ukraine / Volyn Oblast     51°53′35″N   25°31′02″E
temp.,
°C
wind,
m/s
gust,
m/s
humid.,
%
clouds,
%
prec.,
mm/h
press.,
hPa
HPBL,
m
15 august, mon
mon1500:00+20e498071 0.0 1012179
03:00+18e498787 0.1 1012182
06:00+18e389094 0.0 1011186
09:00+22e587341 0.0 1012353
12:00+28e68455 0.0 1011971
15:00+30ese7837100 0.0 10101334
18:00+31ese4736100 0.0 10101773
21:00+25ese61439100 0.0 1011450
16 august, tue
tue1600:00+24ene41050100 0.0 1010279
03:00+20ene4964100 0.0 1010186
06:00+20ene496397 0.0 1009231
09:00+24ne4955100 0.0 1009294
12:00+28e6841100 0.0 10091198
15:00+27e794399 0.0 10091105
18:00+24e51057100 0.0 1010639
21:00+21e3877100 0.3 1011254
17 august, wed
wed1700:00+20ene228299 0.1 101138
03:00+19ne359060 0.2 101191
06:00+18ne3882100 0.0 1011199
09:00+21ne476261 0.0 1011412
12:00+26ene46455 0.0 10111349
15:00+29e45405 0.0 10111843
18:00+29e454081 0.0 10101610
21:00+24ne410525 0.0 1011228
18 august, thu
thu1800:00+19ne35720 0.0 101272
03:00+18ne35821 0.0 101277
06:00+17ne35911 0.0 101283
09:00+23ene46685 0.0 1013376
12:00+29ene46393 0.0 10131195
15:00+32ene56305 0.0 10122158
18:00+32ene56295 0.0 10112598
21:00+25ne49484 0.0 1012144
19 august, fri
fri1900:00+21ene49615 0.0 1013150
03:00+19ene36730 0.0 101389
06:00+18ene37790 0.0 1013121
09:00+23ene45600 0.0 1013381
12:00+28e45420 0.0 10121074
15:00+31ese44330 0.0 10112064
18:00+31ese443426 0.0 10102258
21:00+24e511560 0.0 1010298